START_TIME,STEP,MOV.,M15,t_acc.,M20,t_acc.
1979-08-07 21:00:42.370 ,0,0,0.,24.0,0.,24.0
1979-08-07 21:01:06.370 ,0,1,0.,24.0,0.,24.0
1979-08-07 21:01:30.370 ,0,0,0.,24.0,0.,24.0
1979-08-07 21:01:54.370 ,1,1,0.,24.0,0.,24.0
1979-08-07 21:02:18.370 ,1,0,0.,24.0,0.,24.0
1979-08-07 21:02:42.370 ,2,1,0.,24.0,0.,24.0
1979-08-07 21:03:06.370 ,2,0,0.,24.0,0.,24.0
1979-08-07 21:03:30.370 ,3,1,0.,24.0,0.,24.0
1979-08-07 21:03:54.370 ,3,0,0.,24.0,0.,24.0
1979-08-07 21:04:18.370 ,4,1,0.,24.0,0.,24.0
1979-08-07 21:04:42.370 ,4,0,0.,24.0,0.,24.0
1979-08-07 21:05:06.360 ,5,1,0.,24.0,0.,24.0
1979-08-07 21:05:30.370 ,5,0,0.,24.0,0.,24.0
1979-08-07 21:05:54.370 ,6,1,0.,24.0,0.,24.0
1979-08-07 21:06:18.360 ,6,0,0.,24.0,0.,24.0
1979-08-07 21:06:42.370 ,7,0,0.,24.0,0.,24.0
1979-08-07 21:07:06.360 ,0,0,,0,,0
1979-08-07 21:16:37.570 ,0,0,0.,24.0,0.,24.0
1979-08-07 21:16:42.370 ,7,1,0.,24.0,0.,24.0
1979-08-07 21:17:06.360 ,3,1,0.,24.0,0.,24.0
1979-08-07 21:17:30.360 ,0,1,0.,24.0,0.,24.0
1979-08-07 21:17:54.360 ,0,0,0.,24.0,0.,24.0
1979-08-07 21:18:18.360 ,0,0,0.,24.0,0.,24.0
1979-08-07 21:18:42.360 ,5,1,0.,24.0,0.,24.0
1979-08-07 21:19:06.360 ,5,0,0.,24.0,0.,24.0
1979-08-07 21:19:30.360 ,4,1,0.,24.0,0.,24.0
1979-08-07 21:19:54.360 ,4,0,0.,24.0,0.,24.0
1979-08-07 21:20:18.360 ,3,1,0.,24.0,0.,24.0
1979-08-07 21:20:42.360 ,3,0,0.,24.0,0.,24.0
1979-08-07 21:21:06.360 ,2,1,0.,24.0,0.,24.0
1979-08-07 21:21:30.360 ,2,0,0.,24.0,0.,24.0
1979-08-07 21:21:54.360 ,1,1,0.,24.0,0.,24.0
1979-08-07 21:22:18.360 ,1,0,0.,24.0,0.,24.0
1979-08-07 21:22:42.360 ,0,1,0.,24.0,0.,24.0
1979-08-07 21:23:06.360 ,0,0,0.,24.0,0.,24.0
1979-08-07 21:23:30.360 ,0,1,0.,24.0,0.,24.0
1979-08-07 21:23:54.360 ,0,0,0.,24.0,0.,24.0
1979-08-07 21:24:18.360 ,1,1,0.,24.0,0.,24.0
1979-08-07 21:24:42.360 ,1,0,0.,24.0,0.,24.0
1979-08-07 21:25:06.360 ,2,1,0.,24.0,0.,24.0
1979-08-07 21:25:30.360 ,2,0,0.,24.0,0.,24.0
1979-08-07 21:25:54.360 ,3,1,0.,24.0,0.,24.0
1979-08-07 21:26:18.360 ,3,0,0.,24.0,0.,24.0
1979-08-07 21:26:42.360 ,4,1,0.,24.0,0.,24.0
1979-08-07 21:27:06.360 ,4,0,0.,24.0,0.,24.0
1979-08-07 21:27:30.360 ,5,1,0.,24.0,0.,24.0
1979-08-07 21:27:54.360 ,5,0,0.,24.0,0.,24.0
1979-08-07 21:28:18.360 ,6,1,0.,24.0,0.,24.0
1979-08-07 21:28:42.360 ,6,0,0.,24.0,0.,24.0
1979-08-07 21:29:06.360 ,7,1,0.,24.0,0.,24.0
1979-08-07 21:29:30.360 ,7,0,0.,24.0,0.,24.0
1979-08-07 21:30:42.360 ,0,0,0.,24.0,0.,24.0
1979-08-07 21:31:06.360 ,0,0,0.,24.0,0.,24.0
1979-08-07 21:31:30.360 ,5,1,0.,24.0,0.,24.0
1979-08-07 21:31:54.360 ,5,0,0.,24.0,0.,24.0
1979-08-07 21:32:18.360 ,4,1,0.,24.0,0.,24.0
1979-08-07 21:32:42.360 ,4,0,0.,24.0,0.,24.0
1979-08-07 21:33:06.360 ,3,1,0.,24.0,0.,24.0
1979-08-07 21:33:30.360 ,3,0,0.,24.0,0.,24.0
1979-08-07 21:33:54.360 ,2,1,0.,24.0,0.,24.0
1979-08-07 21:34:18.360 ,2,0,0.,24.0,0.,24.0
1979-08-07 21:34:42.360 ,1,1,0.,24.0,0.,24.0
1979-08-07 21:35:06.360 ,1,0,0.,24.0,0.,24.0
1979-08-07 21:35:30.360 ,0,1,0.,24.0,0.,24.0
1979-08-07 21:35:54.360 ,0,0,0.,24.0,0.,24.0
1979-08-07 21:36:18.360 ,0,1,0.,24.0,0.,24.0
1979-08-07 21:36:42.360 ,0,0,0.,24.0,0.,24.0
1979-08-07 21:37:06.360 ,1,1,0.,24.0,0.,24.0
1979-08-07 21:37:30.360 ,1,0,0.,24.0,0.,24.0
1979-08-07 21:37:54.360 ,2,1,0.,24.0,0.,24.0
1979-08-07 21:38:18.360 ,2,0,0.,24.0,0.,24.0
1979-08-07 21:38:42.360 ,3,1,0.,24.0,0.,24.0
1979-08-07 21:39:06.360 ,3,0,0.,24.0,0.,24.0
1979-08-07 21:39:30.360 ,4,1,0.,24.0,0.,24.0
1979-08-07 21:39:54.360 ,4,0,0.,24.0,0.,24.0
1979-08-07 21:40:18.360 ,5,1,0.,24.0,0.,24.0
1979-08-07 21:40:42.360 ,5,0,0.,24.0,0.,24.0
1979-08-07 21:41:06.360 ,6,1,0.,24.0,0.,24.0
1979-08-07 21:41:30.360 ,6,0,0.,24.0,0.,24.0
1979-08-07 21:41:54.360 ,7,1,0.,24.0,0.,24.0
1979-08-07 21:42:18.360 ,7,0,0.,24.0,0.,24.0
1979-08-07 21:42:42.360 ,7,1,0.,24.0,0.,24.0
1979-08-07 21:43:06.360 ,7,0,0.,24.0,0.,24.0
1979-08-07 21:43:30.360 ,6,1,0.,24.0,0.,24.0
1979-08-07 21:43:54.360 ,6,0,0.,24.0,0.,24.0
1979-08-07 21:44:18.360 ,5,1,0.,24.0,0.,24.0
1979-08-07 21:44:42.360 ,5,0,0.,24.0,0.,24.0
1979-08-07 21:45:06.360 ,4,1,0.,24.0,0.,24.0
1979-08-07 21:45:30.360 ,4,0,0.,24.0,0.,24.0
1979-08-07 21:45:54.360 ,3,1,0.,24.0,0.,24.0
1979-08-07 21:46:18.360 ,3,0,0.,24.0,0.,24.0
1979-08-07 21:46:42.360 ,2,1,0.,24.0,0.,24.0
1979-08-07 21:47:06.360 ,2,0,0.,24.0,0.,24.0
1979-08-07 21:47:30.360 ,1,1,0.,24.0,0.,24.0
1979-08-07 21:47:54.360 ,1,0,1.,24.0,0.,24.0
1979-08-07 21:48:18.360 ,0,1,0.,24.0,0.,24.0
1979-08-07 21:48:42.360 ,0,0,0.,24.0,0.,24.0
1979-08-07 21:49:06.360 ,0,1,0.,24.0,0.,24.0
1979-08-07 21:49:30.360 ,0,0,0.,24.0,0.,24.0
1979-08-07 21:49:54.360 ,1,1,0.,24.0,0.,24.0
1979-08-07 21:50:18.360 ,1,0,0.,24.0,0.,24.0
1979-08-07 21:50:42.360 ,2,1,0.,24.0,0.,24.0
1979-08-07 21:51:06.360 ,2,0,0.,24.0,0.,24.0
1979-08-07 21:51:30.360 ,3,1,0.,24.0,0.,24.0
1979-08-07 21:51:54.360 ,3,0,0.,24.0,0.,24.0
1979-08-07 21:52:18.360 ,4,1,0.,24.0,0.,24.0
1979-08-07 21:52:42.360 ,4,0,0.,24.0,0.,24.0
1979-08-07 21:53:06.360 ,5,1,0.,24.0,0.,24.0
1979-08-07 21:53:30.360 ,5,0,0.,24.0,0.,24.0
1979-08-07 21:53:54.360 ,6,1,0.,24.0,0.,24.0
1979-08-07 21:54:18.360 ,6,0,0.,24.0,0.,24.0
1979-08-07 21:54:42.360 ,7,0,0.,24.0,0.,24.0
1979-08-07 21:55:06.360 ,7,0,0.,24.0,0.,24.0
1979-08-07 21:55:30.360 ,3,1,0.,24.0,0.,24.0
1979-08-07 21:55:54.360 ,0,1,0.,24.0,0.,24.0
1979-08-07 21:56:18.360 ,4,1,0.,24.0,0.,24.0
1979-08-07 21:56:42.360 ,7,1,0.,24.0,0.,24.0
1979-08-07 21:57:06.360 ,3,1,0.,24.0,0.,24.0
1979-08-07 21:57:30.360 ,0,1,0.,24.0,0.,24.0
1979-08-07 21:57:54.360 ,4,1,0.,24.0,0.,24.0
1979-08-07 21:58:18.360 ,7,1,0.,24.0,0.,24.0
1979-08-07 21:58:42.360 ,3,1,0.,24.0,0.,24.0
1979-08-07 21:59:06.360 ,0,1,0.,24.0,0.,24.0
1979-08-07 21:59:30.360 ,4,1,0.,24.0,0.,24.0
1979-08-07 21:59:54.360 ,7,1,0.,24.0,0.,24.0
1979-08-07 22:00:18.360 ,3,1,0.,24.0,0.,24.0
1979-08-07 22:00:42.360 ,0,1,0.,24.0,0.,24.0
1979-08-07 22:01:06.360 ,4,1,0.,24.0,0.,24.0
1979-08-07 22:01:30.360 ,7,1,0.,24.0,0.,24.0
1979-08-07 22:01:54.360 ,3,1,0.,24.0,0.,24.0
1979-08-07 22:02:18.360 ,0,1,0.,24.0,0.,24.0
1979-08-07 22:02:42.360 ,4,1,0.,24.0,0.,24.0
1979-08-07 22:03:06.360 ,7,1,0.,24.0,0.,24.0
1979-08-07 22:03:30.360 ,3,1,0.,24.0,0.,24.0
1979-08-07 22:03:54.360 ,0,1,0.,24.0,0.,24.0
1979-08-07 22:04:18.360 ,4,1,0.,24.0,0.,24.0
1979-08-07 22:04:42.360 ,7,1,0.,24.0,0.,24.0
1979-08-07 22:05:06.360 ,3,1,0.,24.0,0.,24.0
1979-08-07 22:05:30.360 ,0,1,0.,24.0,0.,24.0
1979-08-07 22:05:54.360 ,0,0,0.,24.0,0.,24.0
1979-08-07 22:06:18.360 ,0,0,0.,24.0,0.,24.0
1979-08-07 22:06:42.360 ,5,1,0.,24.0,0.,24.0
1979-08-07 22:07:06.360 ,5,0,0.,24.0,0.,24.0
1979-08-07 22:07:30.360 ,4,1,0.,24.0,0.,24.0
1979-08-07 22:07:54.360 ,4,0,0.,24.0,0.,24.0
1979-08-07 22:08:18.360 ,3,1,0.,24.0,0.,24.0
1979-08-07 22:08:42.360 ,3,0,0.,24.0,0.,24.0
1979-08-07 22:09:06.360 ,2,1,0.,24.0,0.,24.0
1979-08-07 22:09:30.360 ,2,0,0.,24.0,0.,24.0
1979-08-07 22:09:54.360 ,1,1,0.,24.0,0.,24.0
1979-08-07 22:10:18.360 ,1,0,0.,24.0,0.,24.0
1979-08-07 22:10:42.360 ,0,1,0.,24.0,0.,24.0
1979-08-07 22:11:06.360 ,0,0,0.,24.0,0.,24.0
1979-08-07 22:11:30.360 ,0,1,0.,24.0,0.,24.0
1979-08-07 22:11:54.360 ,0,0,0.,24.0,0.,24.0
1979-08-07 22:12:18.360 ,1,1,0.,24.0,0.,24.0
1979-08-07 22:12:42.360 ,1,0,0.,24.0,0.,24.0
1979-08-07 22:13:06.360 ,2,1,0.,24.0,0.,24.0
1979-08-07 22:13:30.360 ,2,0,0.,24.0,0.,24.0
1979-08-07 22:13:54.360 ,3,1,0.,24.0,0.,24.0
1979-08-07 22:14:18.360 ,3,0,0.,24.0,0.,24.0
1979-08-07 22:14:42.360 ,4,1,0.,24.0,0.,24.0
1979-08-07 22:15:06.360 ,4,0,0.,24.0,0.,24.0
1979-08-07 22:15:30.360 ,5,1,0.,24.0,0.,24.0
1979-08-07 22:15:54.360 ,5,0,0.,24.0,0.,24.0
1979-08-07 22:16:18.360 ,6,1,0.,24.0,0.,24.0
1979-08-07 22:16:42.360 ,6,0,0.,24.0,0.,24.0
1979-08-07 22:17:06.360 ,7,1,0.,24.0,0.,24.0
1979-08-07 22:17:30.360 ,7,0,0.,24.0,0.,24.0
1979-08-07 22:17:54.360 ,7,1,0.,24.0,0.,24.0
1979-08-07 22:18:18.360 ,7,0,0.,24.0,0.,24.0
1979-08-07 22:18:42.360 ,6,1,0.,24.0,0.,24.0
1979-08-07 22:19:06.360 ,6,0,0.,24.0,0.,24.0
1979-08-07 22:19:30.360 ,5,1,0.,24.0,0.,24.0
1979-08-07 22:19:54.360 ,5,0,0.,24.0,0.,24.0
1979-08-07 22:20:18.360 ,4,1,0.,24.0,0.,24.0
1979-08-07 22:20:42.360 ,4,0,0.,24.0,0.,24.0
1979-08-07 22:21:06.360 ,3,1,0.,24.0,0.,24.0
1979-08-07 22:21:30.360 ,3,0,0.,24.0,0.,24.0
1979-08-07 22:21:54.360 ,2,1,0.,24.0,0.,24.0
1979-08-07 22:22:18.360 ,2,0,0.,24.0,0.,24.0
1979-08-07 22:22:42.360 ,1,1,0.,24.0,0.,24.0
1979-08-07 22:23:06.360 ,1,0,0.,24.0,0.,24.0
1979-08-07 22:23:30.360 ,0,1,0.,24.0,0.,24.0
1979-08-07 22:23:54.360 ,0,0,0.,24.0,0.,24.0
1979-08-07 22:24:18.360 ,0,1,0.,24.0,0.,24.0
1979-08-07 22:24:42.360 ,0,0,0.,24.0,0.,24.0
1979-08-07 22:25:06.360 ,1,1,0.,24.0,0.,24.0
1979-08-07 22:25:30.360 ,1,0,0.,24.0,0.,24.0
1979-08-07 22:25:54.360 ,2,1,0.,24.0,0.,24.0
1979-08-07 22:26:18.360 ,2,0,0.,24.0,0.,24.0
1979-08-07 22:26:42.360 ,3,1,0.,24.0,0.,24.0
1979-08-07 22:27:06.360 ,3,0,0.,24.0,0.,24.0
1979-08-07 22:27:30.360 ,4,1,0.,24.0,0.,24.0
1979-08-07 22:27:54.360 ,4,0,0.,24.0,0.,24.0
1979-08-07 22:28:18.360 ,5,1,0.,24.0,0.,24.0
1979-08-07 22:28:42.360 ,5,0,0.,24.0,0.,24.0
1979-08-07 22:29:06.360 ,6,1,0.,24.0,0.,24.0
1979-08-07 22:29:30.360 ,6,0,0.,24.0,0.,24.0
1979-08-07 22:29:54.360 ,0,0,0.,24.0,0.,24.0
1979-08-07 22:30:18.360 ,0,0,0.,24.0,0.,24.0
1979-08-07 22:30:42.360 ,7,1,0.,24.0,0.,24.0
1979-08-07 22:31:06.360 ,7,0,0.,24.0,0.,24.0
1979-08-07 22:31:30.360 ,6,1,0.,24.0,0.,24.0
1979-08-07 22:31:54.360 ,6,0,0.,24.0,0.,24.0
1979-08-07 22:32:18.360 ,5,1,0.,24.0,0.,24.0
1979-08-07 22:32:42.360 ,5,0,0.,24.0,0.,24.0
1979-08-07 22:33:06.360 ,4,1,0.,24.0,0.,24.0
1979-08-07 22:33:30.360 ,4,0,0.,24.0,0.,24.0
1979-08-07 22:33:54.360 ,3,1,0.,24.0,0.,24.0
1979-08-07 22:34:18.360 ,3,0,1.,24.0,0.,24.0
1979-08-07 22:34:42.360 ,2,1,0.,24.0,0.,24.0
1979-08-07 22:35:06.360 ,2,0,0.,24.0,0.,24.0
1979-08-07 22:35:30.360 ,1,1,0.,24.0,0.,24.0
1979-08-07 22:35:54.360 ,1,0,0.,24.0,0.,24.0
1979-08-07 22:36:18.360 ,0,1,0.,24.0,0.,24.0
1979-08-07 22:36:42.360 ,0,0,0.,24.0,0.,24.0
1979-08-07 22:37:06.360 ,0,0,,0,,0
1979-08-07 22:37:30.360 ,0,0,,0,,0
1979-08-07 22:37:57.960 ,0,0,0.,24.0,0.,24.0
1979-08-07 22:38:18.360 ,0,0,0.,24.0,0.,24.0
1979-08-07 22:38:42.360 ,2,1,0.,24.0,0.,24.0
1979-08-07 22:39:06.360 ,2,0,0.,24.0,0.,24.0
1979-08-07 22:39:30.360 ,3,1,0.,24.0,0.,24.0
1979-08-07 22:39:54.360 ,3,0,0.,24.0,0.,24.0
1979-08-07 22:40:18.360 ,4,1,0.,24.0,0.,24.0
1979-08-07 22:40:42.360 ,4,0,0.,24.0,0.,24.0
1979-08-07 22:41:06.360 ,5,1,0.,24.0,0.,24.0
1979-08-07 22:41:30.360 ,5,0,0.,24.0,0.,24.0
1979-08-07 22:41:54.360 ,6,1,0.,24.0,0.,24.0
1979-08-07 22:42:18.360 ,6,0,0.,24.0,0.,24.0
1979-08-07 22:42:42.360 ,7,0,0.,24.0,0.,24.0
1979-08-07 22:43:06.360 ,7,0,0.,24.0,0.,24.0
1979-08-07 22:43:30.360 ,3,1,0.,24.0,0.,24.0
1979-08-07 22:43:54.360 ,0,1,0.,24.0,0.,24.0
1979-08-07 22:44:18.360 ,4,1,0.,24.0,0.,24.0
1979-08-07 22:44:42.360 ,7,1,0.,24.0,0.,24.0
1979-08-07 22:45:06.360 ,3,1,0.,24.0,0.,24.0
1979-08-07 22:45:30.360 ,0,1,0.,24.0,0.,24.0
1979-08-07 22:45:54.360 ,4,1,0.,24.0,0.,24.0
1979-08-07 22:46:18.360 ,7,1,0.,24.0,0.,24.0
1979-08-07 22:46:42.360 ,3,1,0.,24.0,0.,24.0
1979-08-07 22:47:06.360 ,0,1,0.,24.0,0.,24.0
1979-08-07 22:47:30.360 ,4,1,0.,24.0,0.,24.0
1979-08-07 22:47:54.360 ,7,1,0.,24.0,0.,24.0
1979-08-07 22:48:18.360 ,3,1,0.,24.0,0.,24.0
1979-08-07 22:48:42.360 ,0,1,0.,24.0,0.,24.0
1979-08-07 22:49:06.360 ,4,1,0.,24.0,0.,24.0
1979-08-07 22:49:30.360 ,7,1,0.,24.0,0.,24.0
1979-08-07 22:49:54.360 ,3,1,0.,24.0,0.,24.0
1979-08-07 22:50:18.360 ,0,1,0.,24.0,0.,24.0
1979-08-07 22:50:42.360 ,4,1,0.,24.0,0.,24.0
1979-08-07 22:51:06.360 ,7,1,0.,24.0,0.,24.0
1979-08-07 22:51:30.360 ,3,1,0.,24.0,0.,24.0
1979-08-07 22:51:54.360 ,0,1,0.,24.0,0.,24.0
1979-08-07 22:52:18.360 ,4,1,0.,24.0,0.,24.0
1979-08-07 22:52:42.360 ,7,1,0.,24.0,0.,24.0
1979-08-07 22:53:06.360 ,3,1,0.,24.0,0.,24.0
1979-08-07 22:53:30.360 ,0,1,0.,24.0,0.,24.0
1979-08-07 22:53:54.360 ,0,0,0.,24.0,0.,24.0
1979-08-07 22:54:18.360 ,0,0,0.,24.0,0.,24.0
1979-08-07 22:54:42.360 ,5,1,0.,24.0,0.,24.0
1979-08-07 22:55:06.360 ,5,0,0.,24.0,0.,24.0
1979-08-07 22:55:30.360 ,4,1,0.,24.0,0.,24.0
1979-08-07 22:55:54.360 ,4,0,0.,24.0,0.,24.0
1979-08-07 22:56:18.360 ,3,1,0.,24.0,0.,24.0
1979-08-07 22:56:42.360 ,3,0,0.,24.0,0.,24.0
1979-08-07 22:57:06.360 ,2,1,0.,24.0,0.,24.0
1979-08-07 22:57:30.360 ,2,0,0.,24.0,0.,24.0
1979-08-07 22:57:54.360 ,1,1,0.,24.0,0.,24.0
1979-08-07 22:58:18.360 ,1,0,0.,24.0,0.,24.0
1979-08-07 22:58:42.360 ,0,1,0.,24.0,0.,24.0
1979-08-07 22:59:06.360 ,0,0,0.,24.0,0.,24.0
1979-08-07 22:59:30.360 ,0,1,0.,24.0,0.,24.0
1979-08-07 22:59:54.360 ,0,0,0.,24.0,0.,24.0
1979-08-07 23:00:18.360 ,1,1,0.,24.0,0.,24.0
1979-08-07 23:00:42.360 ,1,0,0.,24.0,0.,24.0
1979-08-07 23:01:06.360 ,2,1,0.,24.0,0.,24.0
1979-08-07 23:01:30.360 ,2,0,0.,24.0,0.,24.0
1979-08-07 23:01:54.360 ,3,1,0.,24.0,0.,24.0
1979-08-07 23:02:18.360 ,3,0,0.,24.0,0.,24.0
1979-08-07 23:02:42.360 ,4,1,0.,24.0,0.,24.0
1979-08-07 23:03:06.360 ,4,0,0.,24.0,0.,24.0
1979-08-07 23:04:18.360 ,0,0,0.,24.0,0.,24.0
1979-08-07 23:04:42.360 ,0,0,0.,24.0,0.,24.0
1979-08-07 23:05:06.360 ,7,1,0.,24.0,0.,24.0
1979-08-07 23:05:30.360 ,7,0,0.,24.0,0.,24.0
1979-08-07 23:06:42.360 ,0,0,0.,24.0,0.,24.0
1979-08-07 23:07:06.360 ,0,0,0.,24.0,0.,24.0
1979-08-07 23:07:30.360 ,5,1,0.,24.0,0.,24.0
1979-08-07 23:07:54.360 ,5,0,0.,24.0,0.,24.0
1979-08-07 23:08:18.360 ,4,1,0.,24.0,0.,24.0
1979-08-07 23:08:42.360 ,4,0,0.,24.0,0.,24.0
1979-08-07 23:09:06.360 ,3,1,0.,24.0,0.,24.0
1979-08-07 23:09:30.360 ,3,0,0.,24.0,0.,24.0
1979-08-07 23:09:54.360 ,2,1,0.,24.0,0.,24.0
1979-08-07 23:10:18.360 ,2,0,0.,24.0,0.,24.0
1979-08-07 23:10:42.360 ,1,1,0.,24.0,0.,24.0
1979-08-07 23:11:06.360 ,1,0,0.,24.0,0.,24.0
1979-08-07 23:11:30.360 ,0,1,0.,24.0,0.,24.0
1979-08-07 23:11:54.360 ,0,0,0.,24.0,0.,24.0
1979-08-07 23:12:18.360 ,0,1,0.,24.0,0.,24.0
1979-08-07 23:13:30.360 ,1,0,0.,24.0,0.,24.0
1979-08-07 23:13:54.360 ,2,1,0.,24.0,0.,24.0
1979-08-07 23:14:18.360 ,2,0,0.,24.0,0.,24.0
1979-08-07 23:14:42.360 ,3,1,0.,24.0,0.,24.0
1979-08-07 23:15:06.360 ,3,0,0.,24.0,0.,24.0
1979-08-07 23:15:30.360 ,4,1,0.,24.0,0.,24.0
1979-08-07 23:15:54.360 ,4,0,0.,24.0,0.,24.0
1979-08-07 23:16:18.360 ,5,1,0.,24.0,0.,24.0
1979-08-07 23:16:42.360 ,5,0,0.,24.0,0.,24.0
1979-08-07 23:17:06.360 ,6,1,0.,24.0,0.,24.0
1979-08-07 23:17:30.360 ,6,0,0.,24.0,0.,24.0
1979-08-07 23:17:54.360 ,7,1,0.,24.0,0.,24.0
1979-08-07 23:18:18.360 ,7,0,0.,24.0,0.,24.0
1979-08-07 23:18:42.360 ,7,1,0.,24.0,0.,24.0
1979-08-07 23:19:06.360 ,7,0,0.,24.0,0.,24.0
1979-08-07 23:19:30.360 ,6,1,0.,24.0,0.,24.0
1979-08-07 23:19:54.360 ,6,0,0.,24.0,0.,24.0
1979-08-07 23:20:18.360 ,5,1,0.,24.0,0.,24.0
1979-08-07 23:20:42.360 ,5,0,0.,24.0,0.,24.0
1979-08-07 23:21:06.360 ,4,1,0.,24.0,0.,24.0
1979-08-07 23:21:30.360 ,4,0,0.,24.0,0.,24.0
1979-08-07 23:21:54.360 ,3,1,0.,24.0,0.,24.0
1979-08-07 23:22:18.360 ,3,0,0.,24.0,0.,24.0
1979-08-07 23:22:42.360 ,2,1,0.,24.0,0.,24.0
1979-08-07 23:23:06.360 ,2,0,0.,24.0,0.,24.0
1979-08-07 23:23:30.360 ,1,1,0.,24.0,0.,24.0
1979-08-07 23:23:54.360 ,1,0,0.,24.0,0.,24.0
1979-08-07 23:24:18.360 ,0,1,0.,24.0,0.,24.0
1979-08-07 23:24:42.360 ,0,0,0.,24.0,0.,24.0
1979-08-07 23:25:06.360 ,0,1,0.,24.0,0.,24.0
1979-08-07 23:25:30.360 ,0,0,0.,24.0,0.,24.0
1979-08-07 23:25:54.360 ,1,1,0.,24.0,0.,24.0
1979-08-07 23:26:18.360 ,1,0,0.,24.0,0.,24.0
1979-08-07 23:26:42.360 ,2,1,0.,24.0,0.,24.0
1979-08-07 23:27:06.360 ,2,0,0.,24.0,0.,24.0
1979-08-07 23:27:30.360 ,3,1,0.,24.0,0.,24.0
1979-08-07 23:27:54.360 ,3,0,0.,24.0,0.,24.0
1979-08-07 23:28:18.360 ,4,1,0.,24.0,0.,24.0
1979-08-07 23:28:42.360 ,4,0,0.,24.0,0.,24.0
1979-08-07 23:29:06.360 ,5,1,0.,24.0,0.,24.0
1979-08-07 23:29:30.360 ,5,0,0.,24.0,0.,24.0
1979-08-07 23:29:54.360 ,6,1,0.,24.0,0.,24.0
1979-08-07 23:30:18.360 ,6,0,0.,24.0,0.,24.0
1979-08-07 23:30:42.360 ,7,0,0.,24.0,0.,24.0
1979-08-07 23:31:06.360 ,7,0,0.,24.0,0.,24.0
1979-08-07 23:31:30.360 ,3,1,0.,24.0,0.,24.0
1979-08-07 23:31:54.360 ,0,1,0.,24.0,0.,24.0
1979-08-07 23:32:18.360 ,4,1,0.,24.0,0.,24.0
1979-08-07 23:32:42.360 ,7,1,0.,24.0,0.,24.0
1979-08-07 23:33:06.360 ,3,1,0.,24.0,0.,24.0
1979-08-07 23:33:30.360 ,0,1,0.,24.0,0.,24.0
1979-08-07 23:33:54.360 ,4,1,0.,24.0,0.,24.0
1979-08-07 23:34:18.360 ,7,1,0.,24.0,0.,24.0
1979-08-07 23:34:42.360 ,3,1,0.,24.0,0.,24.0
1979-08-07 23:35:06.360 ,0,1,0.,24.0,0.,24.0
1979-08-07 23:35:30.360 ,4,1,0.,24.0,0.,24.0
1979-08-07 23:35:54.360 ,7,1,0.,24.0,0.,24.0
1979-08-07 23:36:18.360 ,3,1,0.,24.0,0.,24.0
1979-08-07 23:36:42.360 ,0,1,0.,24.0,0.,24.0
1979-08-07 23:37:06.360 ,4,1,0.,24.0,0.,24.0
1979-08-07 23:37:30.360 ,7,1,0.,24.0,0.,24.0
1979-08-07 23:37:54.360 ,3,1,0.,24.0,0.,24.0
1979-08-07 23:38:18.360 ,0,1,0.,24.0,0.,24.0
1979-08-07 23:38:42.360 ,4,1,0.,24.0,0.,24.0
1979-08-07 23:39:06.360 ,7,1,0.,24.0,0.,24.0
1979-08-07 23:39:30.360 ,3,1,0.,24.0,0.,24.0
1979-08-07 23:39:54.360 ,0,1,0.,24.0,0.,24.0
1979-08-07 23:40:18.360 ,4,1,0.,24.0,0.,24.0
1979-08-07 23:40:42.360 ,7,1,0.,24.0,0.,24.0
1979-08-07 23:41:06.360 ,3,1,0.,24.0,0.,24.0
1979-08-07 23:41:30.360 ,0,1,0.,24.0,0.,24.0
1979-08-07 23:41:54.360 ,0,0,0.,24.0,0.,24.0
1979-08-07 23:42:18.360 ,0,0,0.,24.0,0.,24.0
1979-08-07 23:42:42.360 ,5,1,0.,24.0,0.,24.0
1979-08-07 23:43:06.360 ,5,0,0.,24.0,0.,24.0
1979-08-07 23:43:30.360 ,4,1,0.,24.0,0.,24.0
1979-08-07 23:43:54.360 ,4,0,0.,24.0,0.,24.0
1979-08-07 23:44:18.360 ,3,1,0.,24.0,0.,24.0
1979-08-07 23:44:42.360 ,3,0,0.,24.0,0.,24.0
1979-08-07 23:45:06.360 ,2,1,0.,24.0,0.,24.0
1979-08-07 23:45:30.360 ,2,0,0.,24.0,0.,24.0
1979-08-07 23:45:54.360 ,1,1,0.,24.0,0.,24.0
1979-08-07 23:46:18.360 ,1,0,0.,24.0,0.,24.0
1979-08-07 23:46:42.360 ,0,1,0.,24.0,0.,24.0
1979-08-07 23:47:06.360 ,0,0,0.,24.0,0.,24.0
1979-08-07 23:47:30.360 ,0,1,0.,24.0,0.,24.0
1979-08-07 23:47:54.360 ,0,0,0.,24.0,0.,24.0
1979-08-07 23:48:18.360 ,1,1,0.,24.0,0.,24.0
1979-08-07 23:48:42.360 ,1,0,0.,24.0,0.,24.0
1979-08-07 23:49:06.360 ,2,1,0.,24.0,0.,24.0
1979-08-07 23:49:30.360 ,2,0,0.,24.0,0.,24.0
1979-08-07 23:49:54.360 ,3,1,0.,24.0,0.,24.0
1979-08-07 23:50:18.360 ,3,0,0.,24.0,0.,24.0
1979-08-07 23:50:42.360 ,4,1,0.,24.0,0.,24.0
1979-08-07 23:51:06.360 ,4,0,0.,24.0,0.,24.0
1979-08-07 23:51:30.360 ,5,1,0.,24.0,0.,24.0
1979-08-07 23:51:54.360 ,5,0,0.,24.0,0.,24.0
1979-08-07 23:52:18.360 ,6,1,0.,24.0,0.,24.0
1979-08-07 23:52:42.360 ,0,0,,0,,0
1979-08-07 23:55:35.160 ,0,0,0.,24.0,0.,24.0
1979-08-07 23:55:54.360 ,0,0,0.,24.0,0.,24.0
1979-08-07 23:56:18.360 ,4,1,0.,24.0,0.,24.0
1979-08-07 23:56:42.360 ,4,0,0.,24.0,0.,24.0
1979-08-07 23:57:06.360 ,3,1,0.,24.0,0.,24.0
1979-08-07 23:57:30.360 ,3,0,0.,24.0,0.,24.0
1979-08-07 23:57:54.360 ,2,1,0.,24.0,0.,24.0
1979-08-07 23:58:18.360 ,2,0,0.,24.0,0.,24.0
1979-08-07 23:58:42.360 ,1,1,0.,24.0,0.,24.0
1979-08-07 23:59:06.360 ,1,0,0.,24.0,0.,24.0
1979-08-07 23:59:30.360 ,0,1,0.,24.0,0.,24.0
1979-08-07 23:59:54.360 ,0,0,0.,24.0,0.,24.0
1979-08-08 00:00:18.360 ,0,0,,0,,0
